Notices

What's New in latest Release from April 7th, 2021:

- Updated Glossary, including Speed of Maximum Gust, and Total Hourly Precipitation

- Updated national and regional climate services offices contacts and prices information

- Addition of station inventory lists for 1981-2010, 1971-2000, and 1961-1990 Normals.

If you haven't already, please take our survey and provide feedback about our website: https://eccc.sondage-survey.ca/f/LanguageSelection.aspx?s=442ca660-fcf1-47c0-95a9-59707d6fd709

Hourly Data Report for July 01, 2016

TORONTO CITY
ONTARIO

43°40'00.000" N
79°24'00.000" W
112.50 m
6158355
71508
XTO

Download Data

Hourly Data (July 2016)
Hourly Data Report for July 1, 2016
TIME
LST
Temp Definition
°C
Dew Point Definition
°C
Rel Hum Definition
%
Precip. Amount Definition
mm

Wind Dir Definition
10's deg

Wind Spd Definition
km/h
Visibility Definition
km
Stn Press Definition
kPa
Hmdx Definition


Wind Chill Definition


Weather Definition


00:00 18.5 7.4 48 0.0 LegendMM LegendMM   100.01     LegendNANA
01:00 18.1 7.0 48 0.0 LegendMM LegendMM   99.97     LegendNANA
02:00 17.5 7.0 50 0.0 LegendMM LegendMM   99.92     LegendNANA
03:00 17.1 7.3 52 0.0 LegendMM LegendMM   99.89     LegendNANA
04:00 18.4 6.9 47 0.0 LegendMM LegendMM   99.85     LegendNANA
05:00 17.6 8.2 54 0.0 LegendMM LegendMM   99.82     LegendNANA
06:00 18.7 10.1 57 0.0 LegendMM LegendMM   99.79     LegendNANA
07:00 19.3 12.0 63 0.0 LegendMM LegendMM   99.74     LegendNANA
08:00 19.1 13.4 70 0.0 LegendMM LegendMM   99.85     LegendNANA
09:00 16.6 13.8 83 1.0 LegendMM LegendMM   99.84     LegendNANA
10:00 17.0 13.5 80 0.4 LegendMM LegendMM   99.72     LegendNANA
11:00 19.6 14.7 73 0.0 LegendMM LegendMM   99.69     LegendNANA
12:00 19.2 13.9 72 0.0 LegendMM LegendMM   99.67     LegendNANA
13:00 18.2 14.8 80 0.5 LegendMM LegendMM   99.60     LegendNANA
14:00 19.3 16.6 85 1.9 LegendMM LegendMM   99.56     LegendNANA
15:00 21.8 12.2 55 0.0 LegendMM LegendMM   99.61     LegendNANA
16:00 22.1 11.4 51 0.0 LegendMM LegendMM   99.66     LegendNANA
17:00 20.3 12.0 59 0.0 LegendMM LegendMM   99.77     LegendNANA
18:00 20.5 11.3 56 0.0 LegendMM LegendMM   99.82     LegendNANA
19:00 19.7 11.7 60 0.0 LegendMM LegendMM   99.88     LegendNANA
20:00 17.5 11.9 70 0.0 LegendMM LegendMM   99.96     LegendNANA
21:00 16.5 10.8 69 0.0 LegendMM LegendMM   100.04     LegendNANA
22:00 16.1 10.6 70 0.0 LegendMM LegendMM   100.11     LegendNANA
23:00 15.7 10.5 71 0.0 LegendMM LegendMM   100.17     LegendNANA

Notes on Data Quality.

Legend

  • E = Estimated
  • M = Missing
  • NA = Not Available*
  • [empty] = Indicates an unobserved value
Date modified: